Powrót do katalogu

STARLINK-5914

AktywnyŁącznośćVLEO
NORAD 55941·PAYLOAD·🇺🇸 United States

Wystrzelony Mar 17, 2023 z Vandenberg Space Force Base

Loading…

Następne Przeloty (najbliższe 24 godziny)

TLE

ŚwieżeSource: CelesTrak SupGP

Epoka: Sep 15, 2026, 02:51 UTC

1 55941C 23037AD  26258.11923611  .00034270  00000+0  28718-2 0  2587
2 55941  70.0015 166.9838 0002878 273.5341   2.4248 14.98316010    14

Śledź STARLINK-5914 w czasie rzeczywistym z AllMySat

Download on the App Store